ONEWEB-0065, 45164

Orbit data source: Space-Track

ONEWEB-0065, 45164 is a payload satellite owned by One Web (UK) in LEO that was launched on Thu, 06 Feb 2020 UTC via a SOYUZ-2-1B launch vehicle from the Tyuratam Missile And Space Complex (TTMTR). Payload-class satellites include a variety of spacecraft equipped with specific instruments for various scientific and technological missions. These include communications satellites like Starlink; space stations such as the ISS; scientific satellites like the Hubble; Earth observation satellites from companies like Planet Labs, Umbra, and HawkEye 360; GPS; miniature CubeSats for education and research; and military/defense satellites.

Loading next visibility...
Identifier
45164, 2020-008AK
Orbit
LEO
Last TLE update
20 hours ago
Origin
Manufacturer
One Web
Mission
Operational Commercial Communications
Bus & Motor
ARROW, Unknown motor
Mass
148 kg wet, ~140 kg dry
Launch date (UTC)
2020-02-06 (5 years ago)
Launch vehicle
SOYUZ-2-1B
Launch site
Tyuratam Missile And Space Complex (TTMTR)
Object type
Payload
Rocket body
Debris
Shape & HBR
Trap Box + 2 Pan, 5 m
Radar Cross Section
2.957 m², Large (>1 m²)

Expand to show TLE details & history

TLE from 20 hours ago
0 ONEWEB-0065
1 45164U 20008AK  25128.51744854 -.00000272  00000-0 -81420-3 0  9997
2 45164  87.8793 116.9701 0002112  84.7931 275.3437 13.10369712254888
Epoch: 2025-05-08T12:25Z
Definitive object data (Epoch: 2025-05-08T12:25:07.553Z)
Latitude
-0.00007°
Longitude
64.10182°
Altitude
1,224.468 km
Speed
7.242 km/s
True Right ascension
07h 47m 52s
True Declination
0° 00' 00"
Sunlit
Object was in daylight at TLE epoch
Visualization TLE readout
Latitude
28.16619°
Longitude
65.06353°
Altitude
1,224.267 km
Speed
7.245 km/s
Apparent Right ascension
06h 36m 46s
Apparent Declination
-2° 39' 50"
Sunlit
Object is in daylight
Visualization observer readout
Local Sidereal Time
16:52:24
Azimuth
320.869° NNW
Elevation
-45.881°
Doppler factor
1
Orbital elements
Apogee altitude
1,220.454 km
Perigee altitude
1,217.245 km
Semi-major axis
7,596.986 km
Eccentricity
0.0002112
Inclination
87.8793°
RAAN
116.9701°
Arg. of periapsis
84.7931°
True anomaly
275.3196°
Mean anomaly
275.3437°
Eccentric anomaly
275.33165°
Mean motion
3.27779 °/min
BSTAR
-0.0008142
Orbital period
109.83 mins
Loading maneuver chart data...
Loading SW <> Apogee altitude chart data...
Loading historical data...
Loading historical data...
Loading historical data...
Loading historical data...
Loading historical data...
Loading historical data...
Loading historical data...

ONEWEB-0065 Visibility forecast

Observer location: undefined°, undefined°

Span
Click to sort rows by Start time (UTC) header in descending order
Start Az.
Max El. time (UTC)
Max El. Az.
Max El.
End time (UTC)
End Az.
14 mins2025-05-09 11:00:11.603Z5.821° NNE2025-05-09 11:07:11.603Z83.027° E41.912°2025-05-09 11:14:11.603Z167.273° S
8 mins2025-05-09 12:53:11.603Z319.224° NNW2025-05-09 12:56:11.603Z289.362° WNW21.07°2025-05-09 13:01:11.603Z241.708° WSW
13 mins2025-05-09 23:20:11.603Z168.04° S2025-05-09 23:26:11.603Z103.477° ESE43.391°2025-05-09 23:33:11.603Z5.527° NNE
9 mins2025-05-10 01:13:11.603Z248.592° W2025-05-10 01:17:11.603Z286.111° WNW18.878°2025-05-10 01:22:11.603Z329.809° NNW
|